Location: ??
(35.5052°N, 139.7262°E)
Time: 20:53:19
(UTC+00:00)

FENGYUN 1C DEB - Visible Passes

Search period start: 21 January 2022 00:00
Search period end: 31 January 2022 00:00
Orbit: 774 x 988 km, 99.2° (Epoch: 21 January)

Date Brightness Start Highest point End Pass type
(mag) Time Alt. Az. Time Alt. Az. Time Alt. Az.
21 Jan ? 09:03:11 10° ESE 09:07:38 24° ENE 09:11:55 10° NNE visible
21 Jan ? 10:43:21 10° SSW 10:48:40 39° W 10:53:45 10° NNW visible
22 Jan ? 09:00:27 10° ESE 09:04:44 23° ENE 09:08:52 10° NNE visible
22 Jan ? 10:40:23 10° S 10:45:44 42° W 10:50:52 10° NNW visible
23 Jan ? 08:57:45 10° ESE 09:01:51 21° ENE 09:05:49 10° NNE visible
23 Jan ? 10:37:25 10° S 10:42:49 45° W 10:47:58 10° NNW visible
24 Jan ? 08:55:02 10° ESE 08:58:57 20° ENE 09:02:44 10° NNE visible
24 Jan ? 10:34:28 10° S 10:39:53 48° W 10:45:04 10° NNW visible
25 Jan ? 08:52:21 10° ESE 08:56:04 19° ENE 08:59:40 10° NNE visible
25 Jan ? 10:31:32 10° S 10:36:58 51° WSW 10:42:10 10° NNW visible
26 Jan ? 08:49:41 10° ESE 08:53:10 17° ENE 08:56:34 10° NNE visible
26 Jan ? 10:28:35 10° S 10:34:03 54° WSW 10:39:14 10° NNW visible
27 Jan ? 08:47:03 10° E 08:50:17 16° ENE 08:53:27 10° NNE visible
27 Jan ? 10:25:39 10° S 10:31:07 58° WSW 10:36:20 10° NNW visible
28 Jan ? 08:44:25 10° E 08:47:24 15° ENE 08:50:18 10° NNE visible
28 Jan ? 10:22:43 10° S 10:28:11 62° WSW 10:33:25 10° NNW visible
29 Jan ? 08:41:50 10° E 08:44:31 14° ENE 08:47:08 10° NNE visible
29 Jan ? 10:19:48 10° S 10:25:16 66° WSW 10:30:30 10° NNW visible
30 Jan ? 08:39:17 10° E 08:41:37 13° ENE 08:43:56 10° NE visible
30 Jan ? 10:16:52 10° S 10:22:20 71° WSW 10:27:34 10° NNW visible
